Location: Gellin
(53.4498°N, 14.3207°E)
Time: 23:22:02
(UTC+00:00)

SJ-11-01 - Pass Details

Date: 03 March 2021
Orbit: 685 x 700 km, 98.0° (Epoch: 12 April)

Event Time Altitude Azimuth Distance (km) Brightness Sun altitude
Rises 17:18:53 0° 156° (SSE) 3,048 7.4 -5.9°
Reaches altitude 10° 17:21:07 10° 153° (SSE) 2,138 6.6 -6.2°
Maximum altitude 17:25:46 69° 72° (ENE) 745 4.3 -6.9°
Drops below altitude 10° 17:30:28 10° 349° (N) 2,164 7.0 -7.6°
Sets 17:32:45 0° 347° (NNW) 3,088 7.8 -8.0°
